Tracking 27401 objects as of 4-Jun-2023
HD Live streaming from Space Station
objects crossing your sky now

GLOBALSTAR M052

Track GLOBALSTAR M052 now!
10-day predictions
GLOBALSTAR M052 is classified as:


NORAD ID: 25773
Int'l Code: 1999-031D
Perigee: 2,090.6 km
Apogee: 2,094.0 km
Inclination: 52.0 °
Period: 129.1 minutes
Semi major axis: 8463 km
RCS: 2.3894 m2 (large)
Launch date: June 10, 1999
Source: Globalstar (GLOB)
Launch site: AIR FORCE EASTERN TEST RANGE (AFETR)
Your satellite tracking list
Your tracking list is empty




NASA's NSSDC Master Catalog

Two Line Element Set (TLE):
1 25773U 99031D   23154.84355084 -.00000053  00000-0  41572-3 0  9999
2 25773  51.9833 200.0704 0002022  10.0067 160.8146 11.15044754395474
Source of the keplerian elements: AFSPC